Precipitable_Water
0.37 0.34 0.34 0.38 0.40 0.35 0.33 0.32 0.33 0.40 0.45 0.40 0.46 0.47 0.48 0.57 0.66 0.62 0.67 0.71 0.73 0.73 0.80 0.88 0.94 0.95 0.89 0.89 0.91 0.97 1.13 1.12 1.10 0.94 0.79 0.74 0.73 0.85 0.99 1.18 1.27 1.30 1.31 1.32
0.39 0.31 0.41 0.42 0.33 0.32 0.32 0.33 0.36 0.42 0.42 0.38 0.42 0.40 0.42 0.51 0.53 0.59 0.65 0.66 0.63 0.70 0.74 0.76 0.85 0.87 0.85 0.85 0.90 0.92 0.95 1.07 1.05 0.99 0.93 0.88 0.87 0.91 1.00 1.16 1.21 1.29 1.25 1.25
0.32 0.39 0.42 0.39 0.35 0.35 0.37 0.36 0.40 0.37 0.43 0.41 0.37 0.36 0.39 0.42 0.58 0.63 0.67 0.65 0.63 0.61 0.70 0.74 0.77 0.88 0.88 0.89 0.93 0.95 0.99 1.03 1.08 1.09 1.02 0.94 0.93 0.95 1.00 1.14 1.11 1.19 1.26 1.28
0.33 0.39 0.38 0.34 0.35 0.39 0.33 0.42 0.39 0.38 0.35 0.40 0.41 0.31 0.38 0.39 0.42 0.53 0.59 0.62 0.65 0.67 0.71 0.74 0.73 0.79 0.89 0.93 0.99 1.01 1.04 1.06 1.13 1.11 1.07 0.97 0.91 0.90 1.02 1.11 1.15 1.19 1.29 1.30
0.28 0.31 0.36 0.31 0.35 0.39 0.35 0.44 0.38 0.38 0.36 0.36 0.35 0.25 0.37 0.35 0.33 0.43 0.52 0.63 0.65 0.66 0.72 0.72 0.74 0.73 0.80 0.88 0.92 1.00 1.03 1.07 1.11 1.13 1.09 1.02 0.97 1.03 1.10 1.16 1.18 1.20 1.22 1.27
0.33 0.40 0.37 0.34 0.39 0.41 0.43 0.39 0.40 0.40 0.38 0.29 0.34 0.29 0.33 0.38 0.33 0.40 0.47 0.55 0.66 0.74 0.74 0.73 0.77 0.84 0.84 0.89 0.90 0.92 0.96 1.04 1.12 1.16 1.18 1.15 1.08 1.06 1.08 1.19 1.19 1.19 1.18 1.22
0.29 0.34 0.36 0.40 0.34 0.40 0.40 0.37 0.31 0.28 0.30 0.26 0.37 0.27 0.28 0.38 0.38 0.38 0.41 0.52 0.57 0.66 0.76 0.78 0.77 0.78 0.81 0.85 0.89 0.93 0.95 0.97 1.11 1.15 1.17 1.21 1.21 1.19 1.15 1.20 1.19 1.19 1.19 1.17
0.25 0.23 0.32 0.37 0.35 0.36 0.35 0.36 0.33 0.25 0.28 0.29 0.31 0.20 0.30 0.35 0.35 0.37 0.41 0.46 0.55 0.60 0.66 0.77 0.84 0.85 0.82 0.86 0.91 0.97 0.99 1.01 1.08 1.16 1.23 1.28 1.27 1.26 1.28 1.33 1.20 1.16 1.13 1.17
0.26 0.25 0.36 0.37 0.36 0.39 0.37 0.32 0.40 0.36 0.35 0.27 0.29 0.31 0.33 0.32 0.31 0.37 0.34 0.40 0.49 0.57 0.62 0.67 0.81 0.90 0.93 0.93 0.94 0.99 1.02 1.04 1.07 1.11 1.20 1.22 1.23 1.23 1.22 1.23 1.16 1.11 1.15 1.20
0.33 0.27 0.33 0.36 0.39 0.38 0.39 0.46 0.32 0.32 0.23 0.25 0.25 0.27 0.28 0.31 0.34 0.34 0.34 0.37 0.43 0.51 0.58 0.66 0.71 0.81 0.93 1.00 1.04 1.06 1.09 1.02 1.05 1.12 1.17 1.16 1.17 1.15 1.16 1.12 1.11 1.17 1.19 1.21
0.35 0.31 0.33 0.36 0.31 0.29 0.32 0.34 0.37 0.36 0.34 0.27 0.24 0.25 0.39 0.33 0.33 0.34 0.39 0.39 0.42 0.47 0.54 0.59 0.65 0.75 0.86 0.95 1.01 1.05 1.09 1.10 1.09 1.12 1.16 1.15 1.13 1.11 1.12 1.13 1.20 1.16 1.16 1.19
0.35 0.32 0.28 0.32 0.36 0.36 0.41 0.36 0.36 0.29 0.27 0.31 0.29 0.28 0.42 0.39 0.38 0.41 0.39 0.43 0.45 0.47 0.51 0.57 0.59 0.62 0.69 0.78 0.88 0.94 1.02 1.08 1.11 1.13 1.15 1.11 1.12 1.12 1.14 1.17 1.11 1.09 1.08 1.12
0.36 0.31 0.26 0.29 0.32 0.38 0.33 0.39 0.42 0.40 0.37 0.30 0.31 0.29 0.40 0.39 0.37 0.39 0.39 0.40 0.44 0.45 0.50 0.55 0.57 0.60 0.63 0.71 0.78 0.86 0.93 0.98 1.03 1.05 1.08 1.09 1.09 1.12 1.09 1.05 1.04 1.03 1.01 0.98
0.39 0.31 0.29 0.23 0.27 0.33 0.28 0.30 0.35 0.36 0.32 0.30 0.29 0.29 0.34 0.37 0.40 0.45 0.46 0.47 0.41 0.43 0.45 0.53 0.61 0.63 0.69 0.72 0.79 0.85 0.90 0.97 1.00 1.00 1.01 1.00 1.00 1.00 1.00 1.01 1.01 0.99 0.97 0.93
0.38 0.30 0.32 0.30 0.33 0.32 0.29 0.30 0.30 0.30 0.32 0.28 0.31 0.31 0.30 0.38 0.41 0.40 0.51 0.52 0.48 0.42 0.40 0.45 0.58 0.71 0.75 0.79 0.82 0.82 0.85 0.88 0.90 0.92 0.96 0.97 0.99 1.00 0.98 0.97 0.95 0.94 0.92 0.89
0.40 0.34 0.35 0.29 0.32 0.32 0.28 0.28 0.29 0.28 0.28 0.28 0.28 0.28 0.35 0.40 0.39 0.38 0.41 0.47 0.46 0.48 0.48 0.45 0.53 0.78 0.84 0.86 0.89 0.81 0.83 0.88 0.93 0.94 0.96 0.99 0.97 0.95 0.93 0.90 0.87 0.84 0.80 0.79
0.40 0.38 0.33 0.27 0.33 0.32 0.27 0.27 0.29 0.29 0.31 0.32 0.28 0.33 0.39 0.39 0.39 0.40 0.39 0.45 0.44 0.49 0.53 0.55 0.63 0.74 0.78 0.82 0.84 0.83 0.89 0.96 0.95 0.94 0.92 0.92 0.91 0.89 0.83 0.81 0.76 0.69 0.66 0.67
0.44 0.42 0.36 0.32 0.34 0.24 0.34 0.37 0.35 0.32 0.33 0.36 0.36 0.35 0.35 0.38 0.40 0.41 0.39 0.37 0.43 0.47 0.53 0.60 0.65 0.65 0.71 0.79 0.81 0.85 0.86 0.88 0.87 0.84 0.82 0.78 0.74 0.70 0.67 0.65 0.62 0.62 0.66 0.66
0.54 0.46 0.36 0.34 0.30 0.31 0.33 0.35 0.32 0.30 0.30 0.36 0.35 0.36 0.38 0.41 0.42 0.36 0.39 0.42 0.48 0.49 0.53 0.57 0.62 0.68 0.72 0.73 0.74 0.72 0.71 0.71 0.69 0.66 0.65 0.65 0.63 0.61 0.60 0.60 0.63 0.65 0.63 0.63
0.53 0.53 0.41 0.37 0.29 0.25 0.33 0.40 0.42 0.38 0.30 0.37 0.40 0.41 0.41 0.41 0.30 0.29 0.42 0.48 0.49 0.52 0.54 0.56 0.61 0.63 0.63 0.64 0.65 0.63 0.63 0.63 0.61 0.61 0.59 0.60 0.60 0.60 0.61 0.62 0.60 0.58 0.55 0.51
0.45 0.47 0.40 0.37 0.34 0.34 0.40 0.43 0.45 0.29 0.26 0.40 0.43 0.45 0.42 0.39 0.40 0.48 0.47 0.47 0.51 0.52 0.54 0.58 0.59 0.58 0.59 0.62 0.64 0.60 0.60 0.57 0.56 0.57 0.58 0.58 0.60 0.58 0.55 0.54 0.53 0.49 0.46 0.44
0.43 0.40 0.40 0.43 0.38 0.33 0.51 0.46 0.36 0.37 0.46 0.49 0.48 0.46 0.45 0.49 0.50 0.52 0.53 0.49 0.48 0.50 0.54 0.57 0.56 0.56 0.61 0.62 0.61 0.58 0.53 0.55 0.55 0.54 0.53 0.53 0.52 0.51 0.52 0.50 0.48 0.43 0.40 0.35
0.46 0.53 0.46 0.46 0.46 0.57 0.56 0.50 0.52 0.53 0.51 0.55 0.52 0.53 0.53 0.55 0.52 0.53 0.53 0.52 0.51 0.52 0.53 0.55 0.54 0.55 0.59 0.61 0.60 0.52 0.50 0.52 0.53 0.53 0.52 0.51 0.50 0.47 0.45 0.41 0.36 0.32 0.31 0.30
0.37 0.41 0.45 0.52 0.55 0.57 0.60 0.58 0.58 0.59 0.56 0.59 0.60 0.59 0.58 0.56 0.56 0.56 0.55 0.53 0.52 0.53 0.53 0.54 0.53 0.52 0.53 0.55 0.53 0.53 0.53 0.54 0.52 0.50 0.49 0.47 0.44 0.39 0.36 0.33 0.31 0.30 0.31 0.30
0.34 0.38 0.38 0.37 0.41 0.50 0.61 0.63 0.63 0.64 0.63 0.59 0.63 0.61 0.60 0.60 0.58 0.58 0.56 0.55 0.53 0.53 0.53 0.52 0.51 0.52 0.52 0.53 0.54 0.55 0.55 0.54 0.51 0.48 0.44 0.41 0.38 0.35 0.34 0.32 0.31 0.30 0.32 0.27
0.41 0.41 0.35 0.32 0.39 0.44 0.49 0.64 0.65 0.61 0.64 0.66 0.64 0.61 0.62 0.62 0.59 0.61 0.58 0.56 0.55 0.53 0.53 0.52 0.53 0.53 0.52 0.53 0.55 0.56 0.57 0.54 0.49 0.43 0.40 0.39 0.37 0.34 0.31 0.30 0.31 0.30 0.27 0.24
Wind_Speed
13 11 11 11 12 12 9 8 9 7 2 7 5 10 2 4 4 5 5 8 8 9 10 12 13 15 16 15 15 14 14 14 14 13 13 13 14 15 15 15 16 16 17 17
13 14 12 8 7 8 8 9 8 7 3 5 8 5 2 4 6 6 7 8 8 9 11 12 14 16 16 16 15 14 13 13 13 13 13 13 13 14 15 15 16 17 17 18
17 12 11 8 8 8 9 10 9 7 8 9 8 6 5 5 5 7 8 8 9 10 12 13 14 15 16 16 15 14 14 13 13 13 12 12 13 14 15 15 16 18 19 19
19 16 11 11 11 10 11 9 8 9 9 3 9 4 12 8 8 9 9 9 10 11 12 13 14 15 15 16 15 15 14 14 14 14 13 15 15 15 16 17 17 18 20 21
19 18 14 14 13 12 12 6 8 9 9 10 6 7 7 9 8 10 11 12 12 13 14 14 15 16 16 16 16 16 16 16 15 16 16 16 17 17 17 18 19 20 21 22
22 16 16 16 11 12 10 9 9 9 9 8 9 6 6 8 5 2 7 12 15 15 15 15 16 17 18 18 18 18 19 19 18 18 18 19 19 19 19 19 20 22 23 24
24 18 16 11 10 10 11 11 8 6 8 8 2 6 11 7 5 7 8 7 12 17 18 18 19 19 20 20 20 20 20 20 20 20 20 20 20 21 21 21 21 23 25 26
22 24 21 14 16 11 15 14 8 9 9 9 5 8 5 3 7 9 10 11 12 14 19 21 21 21 21 22 22 21 21 22 21 20 20 20 21 21 21 24 23 23 24 26
24 24 22 19 17 15 13 17 13 11 9 8 10 10 12 7 7 7 7 9 11 13 16 20 22 22 22 23 23 23 23 23 23 23 22 22 22 22 22 21 23 24 26 28
16 22 17 19 16 16 14 14 12 13 12 12 14 11 9 7 6 4 5 5 7 9 11 15 19 22 23 23 23 23 24 24 24 23 23 24 23 23 24 23 24 26 27 28
26 20 20 17 20 19 16 15 14 13 15 11 11 9 4 6 8 9 9 8 7 6 7 11 14 18 21 23 24 24 25 25 25 25 25 25 25 25 26 26 27 27 27 26
31 20 21 22 21 21 18 18 19 14 15 13 15 15 14 14 17 14 15 13 12 10 9 10 11 13 16 19 21 22 24 25 25 25 25 25 25 25 26 25 25 25 24 24
32 28 22 21 18 17 19 19 17 19 16 16 13 13 13 13 13 14 16 15 14 14 13 12 13 14 15 17 19 19 20 21 23 23 22 22 23 23 23 24 24 25 24 24
33 28 29 25 21 20 22 22 21 20 17 17 19 19 16 16 16 17 17 16 15 13 14 14 13 13 13 15 17 17 17 18 19 20 21 22 22 22 23 24 24 24 24 23
31 34 28 28 24 18 20 21 23 23 22 22 19 20 18 14 13 15 14 15 15 16 15 16 16 14 13 14 16 16 17 18 19 20 20 21 20 21 22 22 22 22 22 23
31 29 31 29 25 25 22 21 21 21 21 22 21 22 18 18 18 16 17 17 17 16 16 16 16 16 16 16 16 16 18 18 19 19 19 20 20 21 21 21 21 21 22 22
29 29 28 28 26 26 28 24 22 21 22 20 21 18 18 17 16 17 18 17 18 17 17 16 16 17 17 17 18 18 18 19 19 20 20 20 20 20 20 20 20 21 22 24
28 28 28 23 19 26 22 22 22 23 23 21 21 21 20 19 20 15 16 19 18 18 18 17 17 17 17 17 17 17 17 17 17 18 18 19 19 19 20 20 21 22 24 26
27 27 26 24 25 25 24 21 19 20 22 21 22 22 21 20 15 18 18 18 17 16 16 16 15 14 14 13 13 14 14 15 16 17 18 19 19 19 20 21 22 25 26 27
27 26 27 22 28 30 26 24 19 20 23 20 22 20 20 16 17 19 15 15 15 15 15 14 14 13 13 13 14 14 15 16 17 17 17 18 18 19 21 23 24 25 26 28
25 24 27 26 23 23 23 22 18 22 16 17 18 18 19 19 18 14 15 16 16 16 15 15 15 15 15 15 15 15 16 17 16 17 17 18 20 21 22 24 25 27 28 30
25 26 24 25 23 24 18 15 20 19 20 18 18 19 19 16 16 16 16 16 16 17 16 16 16 16 16 16 16 16 16 16 17 18 19 20 21 23 24 26 27 29 30 31
19 21 22 23 21 23 23 23 24 20 19 20 20 20 19 17 18 18 18 18 18 18 18 18 17 17 17 17 17 17 17 18 19 20 21 22 23 25 26 28 29 30 31 32
25 27 25 24 22 24 20 21 21 19 21 21 21 21 20 20 20 20 20 20 20 20 20 19 19 18 18 18 18 18 19 20 20 21 23 24 25 27 27 28 29 31 32 34
27 22 25 29 29 30 27 24 23 24 24 23 24 23 23 23 23 23 22 22 21 21 21 21 20 20 19 19 19 20 20 21 22 24 25 26 27 28 28 30 31 32 33 35
26 27 25 23 21 23 26 23 23 25 25 25 24 25 24 24 23 22 21 21 21 21 21 21 21 21 21 20 21 22 23 23 24 25 26 27 28 29 30 31 32 33 35 36
Wind_Direction
236 249 256 266 251 264 288 279 275 271 273 288 279 288 223 216 216 211 204 200 195 190 187 179 174 172 171 172 172 173 172 177 181 187 191 196 200 204 209 213 219 223 229 232
235 248 259 271 267 254 249 256 270 278 269 261 280 267 216 190 192 198 193 191 191 190 177 181 179 180 181 179 183 183 185 187 191 195 199 204 208 213 219 223 230 232 236 238
235 250 244 248 236 241 244 254 270 272 272 269 276 253 210 213 209 217 201 200 196 191 189 182 184 189 189 191 192 195 197 198 200 204 208 213 218 224 228 233 238 240 241 241
234 243 244 241 244 242 259 244 254 263 269 291 266 261 255 198 226 221 213 205 201 198 198 198 196 198 200 203 204 206 207 210 214 217 220 225 230 233 238 241 245 245 244 245
231 234 232 240 243 248 252 240 245 256 271 281 256 263 221 224 232 221 223 218 212 209 205 206 206 208 210 211 213 216 219 223 226 229 234 236 240 243 248 249 250 247 249 249
233 229 233 239 246 247 229 230 241 249 250 257 234 264 202 214 272 205 218 224 223 220 218 221 220 218 220 220 222 224 227 230 233 236 239 243 244 248 251 253 255 254 254 255
223 222 227 231 225 207 213 220 228 226 223 258 199 256 254 272 260 265 264 242 232 232 230 229 227 224 223 224 226 228 230 234 237 241 243 245 248 251 254 257 261 260 259 261
218 221 218 216 223 212 217 221 221 234 239 243 217 261 269 262 279 266 262 254 251 247 239 235 232 230 228 228 229 231 234 238 239 242 244 248 251 256 259 259 266 267 268 267
216 224 217 220 220 231 218 225 244 254 250 260 266 259 263 258 281 274 259 262 257 259 247 238 233 232 232 233 233 235 238 241 242 244 247 250 255 258 263 267 269 272 274 275
224 220 215 209 222 225 241 230 227 237 252 248 256 246 259 246 262 244 262 275 268 264 253 243 238 234 235 236 237 239 243 245 245 246 249 254 258 261 263 269 273 278 278 278
218 222 209 209 221 219 220 233 233 242 238 251 258 266 253 263 254 259 267 274 280 272 255 247 244 242 239 240 241 243 245 246 247 249 252 256 260 262 266 271 275 279 281 279
215 218 222 224 227 227 222 225 229 239 243 246 256 260 288 272 264 274 262 264 266 264 263 255 250 246 244 243 243 245 246 246 247 250 253 256 260 264 267 271 276 280 280 281
210 220 222 223 214 226 234 234 235 237 247 255 248 261 277 275 266 258 263 266 258 258 256 255 254 251 249 246 245 245 245 247 248 250 252 257 261 265 268 272 275 278 278 279
214 218 221 223 223 223 227 234 235 241 245 252 259 271 271 268 265 268 263 256 258 255 254 254 252 252 251 248 245 243 247 247 249 252 255 258 261 264 268 273 275 277 277 276
215 221 222 228 232 234 228 229 234 240 246 251 261 263 271 273 282 278 278 257 254 258 260 258 254 253 253 251 249 249 250 251 253 255 257 257 261 266 271 274 276 276 276 278
214 221 224 230 229 236 239 239 240 245 246 255 258 261 264 275 280 272 268 260 258 260 263 263 257 253 255 256 254 253 253 253 254 254 257 260 265 269 273 274 275 276 278 278
215 220 221 228 231 236 240 237 245 248 250 253 256 263 267 272 275 274 267 255 260 258 261 259 257 256 258 257 257 256 254 255 258 260 263 264 266 269 272 273 275 277 279 282
219 217 221 223 227 233 238 237 242 248 252 252 255 262 265 272 276 272 269 263 258 258 256 258 258 259 256 254 255 254 255 256 257 259 262 265 268 271 272 275 278 279 283 286
223 221 222 223 229 241 239 232 236 247 254 256 261 263 265 275 269 265 266 262 256 255 255 254 253 249 248 247 246 249 252 256 260 263 266 268 269 271 274 277 280 284 287 289
222 223 222 224 235 239 240 240 235 252 258 258 261 262 267 263 269 282 254 253 253 252 250 245 242 243 245 248 251 253 258 262 265 266 267 269 271 273 279 282 284 287 290 292
215 220 224 228 238 244 239 235 226 237 252 261 258 262 264 261 268 265 257 252 250 247 243 240 242 246 249 252 255 260 263 265 265 267 269 272 276 279 283 286 288 290 292 294
218 222 225 231 237 239 225 227 230 243 259 260 260 264 264 258 260 261 256 251 248 243 240 241 245 249 252 255 259 262 264 265 267 269 273 277 281 284 286 288 291 293 295 296
226 226 229 230 238 245 233 243 245 254 259 262 266 264 259 256 257 256 254 251 247 243 242 244 247 249 253 258 261 264 267 268 270 274 278 281 284 286 289 291 293 294 296 297
229 233 233 238 240 244 244 245 251 257 260 263 263 263 260 256 257 257 255 251 247 244 243 245 247 250 255 260 264 266 269 271 274 278 281 284 286 289 291 293 295 296 297 298
232 235 236 244 249 249 248 252 258 259 259 263 261 262 260 262 258 257 255 249 246 244 244 245 248 253 257 261 265 268 271 274 277 281 283 286 288 290 291 294 296 296 298 300
234 234 239 244 251 249 252 254 261 259 258 260 262 262 261 261 258 256 251 246 242 243 244 247 250 254 258 261 267 271 274 277 280 283 285 286 288 290 292 294 295 297 299 301